Regional Weather Roundup
Issued by NWS

Home | Current Version | Previous Version | Text Only | Print | Product List | Glossary On
Versions: 1 2 3 4 5 6 7 8 9 10 11 12 13 14 15 16 17 18 19 20 21 22 23 24 25 26 27 28 29 30 31 32 33 34 35 36 37 38 39 40 41 42 43 44 45 46 47 48 49 50
000
ASCA42 TJSJ 251111
RWRPR
PUERTO RICO/U.S. VIRGIN ISLANDS HOURLY WEATHER ROUNDUP
NATIONAL WEATHER SERVICE SAN JUAN PR
700 AM AST FRI JUL 25 2014

PRZ001-004-251200-
PUERTO RICO

CITY           SKY/WX    TMP DP  RH WIND       PRES   REMARKS
SAN JUAN LMM   MOSUNNY   82  75  78 E8        30.07R
PONCE          MOSUNNY   82  72  69 NE9       30.01R
AGUADILLA      MOSUNNY   79  73  83 E8        30.08
CEIBA          SUNNY     82  73  74 E9        30.10R
$$

PRZ006-007-251200-
U.S. VIRGIN ISLANDS

CITY           SKY/WX    TMP DP  RH WIND       PRES   REMARKS
CHARLOTTE AMA  CLOUDY    82  75  78 E12       30.06R
CHRISTIANSTED  SUNNY     82  73  74 NE9       30.06R
$$

HOURLY WEATHER ROUNDUP FOR THE NEWS MEDIA

CITY           SKY/WX    TMP DP  RH WIND       PRES   REMARKS
MIAMI          PTCLDY    80  75  84 CALM      30.07R
ORLANDO        CLEAR     78  75  90 S3        30.07R
NEW YORK       MOSUNNY   68  54  60 N8        29.98R
NEWARK         PTSUNNY   67  54  63 N8        29.98R
CHICAGO        MOCLDY    59  48  67 SW3       30.03F
HARTFORD       SUNNY     60  55  83 VRB3      29.94R
BOSTON         MOSUNNY   63  52  67 NW7       29.96R
DALLAS         PTCLDY    76  71  85 SE9       30.01S
PHILADELPHIA   MOSUNNY   64  51  62 N10       30.01R



USA.gov is the U.S. government's official web portal to all federal, state and local government web resources and services.